This demonstration page uses our WeatherBlox Daily Observations layout. Learn more.

Left ArrowRight Arrow

Hourly Observations for May 8, 2018

Temp ( °F °C ) Dew Point ( °F °C ) Humidity (%) Winds ( mph kmh ) Pressure ( in mb ) Visibility ( mi km ) Precip ( " mm )
12:53 am 00:53 Clear 52 11.1 48 8.9 86 86 SW 3 6 30.17 1022 10 16 0.00 0.00
1:53 am 01:53 Clear 48 8.9 43 6.1 83 83 Calm 30.17 1022 10 16 0.00 0.00
2:53 am 02:53 Clear 48 8.9 45 7.2 89 89 Calm 30.16 1021 10 16 0.00 0.00
3:53 am 03:53 Clear 47 8.3 43 6.1 86 86 Calm 30.17 1022 10 16 0.00 0.00
4:53 am 04:53 Clear 47 8.3 45 7.2 93 93 Calm 30.17 1022 10 16 0.00 0.00
5:53 am 05:53 Clear 45 7.2 44 6.7 97 97 Calm 30.17 1022 10 16 0.00 0.00
6:53 am 06:53 Sunny 42 5.6 40 4.4 92 92 Calm 30.18 1022 10 16 0.00 0.00
7:53 am 07:53 Sunny 50 10 46 7.8 86 86 Calm 30.19 1023 10 16 0.00 0.00
8:53 am 08:53 Sunny 57 13.9 46 7.8 67 67 Calm 30.21 1023 10 16 0.00 0.00
9:53 am 09:53 Sunny 63 17.2 47 8.3 56 56 Calm 30.20 1023 10 16 0.00 0.00
10:53 am 10:53 Sunny 68 20 44 6.7 42 42 VRB 5 7 30.20 1023 10 16 0.00 0.00
11:53 am 11:53 Sunny 71 21.7 41 5 34 34 NW 5 7 30.19 1022 10 16 0.00 0.00
12:53 pm 12:53 Sunny 73 22.8 41 5 32 32 Calm 30.17 1022 10 16 0.00 0.00
1:53 pm 13:53 Sunny 73 22.8 40 4.4 30 30 VRB 3 6 30.15 1021 10 16 0.00 0.00
2:53 pm 14:53 Sunny 75 23.9 43 6.1 32 32 VRB 3 6 30.14 1021 9 14 0.00 0.03
3:53 pm 15:53 Sunny 77 25 44 6.7 31 31 E 6 9 30.11 1020 10 16 0.00 0.00
4:53 pm 16:53 Sunny 78 25.6 43 6.1 29 29 VRB 3 6 30.10 1019 10 16 0.00 0.00
5:53 pm 17:53 Sunny 78 25.6 45 7.2 31 31 SSW 5 7 30.09 1019 10 16 0.00 0.00
6:53 pm 18:53 Sunny 77 25 46 7.8 33 33 Calm 30.08 1019 10 16 0.00 0.00
7:53 pm 19:53 Sunny 75 23.9 49 9.4 40 40 SW 3 6 30.07 1018 10 16 0.00 0.00
8:53 pm 20:53 Clear 65 18.3 54 12.2 68 68 Calm 30.08 1019 10 16 0.00 0.00
9:53 pm 21:53 Clear 60 15.6 52 11.1 75 75 Calm 30.08 1019 10 16 0.00 0.00
10:53 pm 22:53 Clear 58 14.4 51 10.6 78 78 Calm 30.09 1019 10 16 0.00 0.00
11:53 pm 23:53 Clear 56 13.3 51 10.6 84 84 Calm 30.08 1019 10 16 0.00 0.00

Powered by AerisWeather